TimeCET,TemperatureF,Dew PointF,Humidity,Sea Level PressureIn,VisibilityMPH,Wind Direction,Wind SpeedMPH,Gust SpeedMPH,PrecipitationIn,Events,Conditions,WindDirDegrees,DateUTC
12:00 AM,33.8,28.4,81,29.89,-9999.0,SE,10.4,-,N/A,,Clear,140,2012-12-31 23:00:00
12:30 AM,32.0,28.4,87,29.89,-9999.0,SE,8.1,-,N/A,,Clear,130,2012-12-31 23:30:00
1:00 AM,32,27,76,29.95,9,ESE,8.9,,,,Scattered Clouds,110,2013-01-01 00:00:00
1:00 AM,32.0,26.6,80,29.89,-9999.0,ESE,6.9,-,N/A,,Clear,110,2013-01-01 00:00:00
1:30 AM,33.8,28.4,81,29.86,-9999.0,ESE,5.8,-,N/A,,Clear,120,2013-01-01 00:30:00
2:00 AM,33.8,28.4,81,29.86,-9999.0,ESE,6.9,-,N/A,,Clear,110,2013-01-01 01:00:00
2:30 AM,32.0,28.4,87,29.86,-9999.0,SE,9.2,-,N/A,,Clear,130,2013-01-01 01:30:00
3:00 AM,32.0,28.4,87,29.83,-9999.0,SSE,8.1,-,N/A,,Clear,150,2013-01-01 02:00:00
3:30 AM,32.0,28.4,87,29.83,-9999.0,SE,6.9,-,N/A,,Clear,140,2013-01-01 02:30:00
4:00 AM,32.0,26.6,80,29.83,-9999.0,SSE,6.9,-,N/A,,Clear,160,2013-01-01 03:00:00
4:30 AM,32.0,26.6,80,29.80,-9999.0,South,6.9,-,N/A,,Clear,170,2013-01-01 03:30:00
5:00 AM,32.0,26.6,80,29.80,-9999.0,SSE,6.9,-,N/A,,Clear,160,2013-01-01 04:00:00
5:30 AM,32.0,26.6,80,29.80,-9999.0,SSE,11.5,-,N/A,,Clear,160,2013-01-01 04:30:00
6:00 AM,32.0,26.6,80,29.80,-9999.0,SSE,10.4,-,N/A,,Clear,160,2013-01-01 05:00:00
6:30 AM,32.0,26.6,80,29.80,-9999.0,SSE,11.5,-,N/A,,Clear,160,2013-01-01 05:30:00
7:00 AM,33,27,70,29.86,16,SSE,8.9,,,,Scattered Clouds,150,2013-01-01 06:00:00
7:00 AM,32.0,26.6,80,29.80,-9999.0,SSE,12.7,-,N/A,,Clear,160,2013-01-01 06:00:00
7:30 AM,32.0,26.6,80,29.80,-9999.0,SSE,11.5,-,N/A,,Clear,150,2013-01-01 06:30:00
8:00 AM,32.0,26.6,80,29.80,-9999.0,SSE,9.2,-,N/A,,Clear,150,2013-01-01 07:00:00
8:30 AM,33.8,26.6,75,29.80,-9999.0,SE,10.4,-,N/A,,Clear,140,2013-01-01 07:30:00
9:00 AM,33.8,26.6,75,29.80,-9999.0,SE,10.4,-,N/A,,Clear,140,2013-01-01 08:00:00
9:30 AM,33.8,26.6,75,29.80,-9999.0,SSE,10.4,-,N/A,,Clear,150,2013-01-01 08:30:00
10:00 AM,35.6,28.4,75,29.80,-9999.0,SSE,11.5,-,N/A,,Clear,150,2013-01-01 09:00:00
10:30 AM,37.4,28.4,70,29.80,-9999.0,SSE,10.4,-,N/A,,Clear,150,2013-01-01 09:30:00
11:00 AM,35.6,28.4,75,29.80,-9999.0,SSE,12.7,-,N/A,,Clear,150,2013-01-01 10:00:00
11:30 AM,37.4,28.4,70,29.80,-9999.0,SSE,11.5,-,N/A,,Clear,160,2013-01-01 10:30:00
12:00 PM,39.2,30.2,70,29.77,-9999.0,SSE,12.7,-,N/A,,Clear,160,2013-01-01 11:00:00
12:30 PM,41.0,30.2,65,29.77,-9999.0,SSE,13.8,-,N/A,,Clear,150,2013-01-01 11:30:00
1:00 PM,39,29,58,29.82,12,South,6.7,,,,Partly Cloudy,170,2013-01-01 12:00:00
1:00 PM,39.2,30.2,70,29.77,-9999.0,SSE,16.1,-,N/A,,Clear,160,2013-01-01 12:00:00
1:30 PM,39.2,30.2,70,29.77,-9999.0,SSE,13.8,-,N/A,,Clear,150,2013-01-01 12:30:00
2:00 PM,39.2,30.2,70,29.77,-9999.0,SSE,13.8,-,N/A,,Clear,160,2013-01-01 13:00:00
2:30 PM,39.2,30.2,70,29.77,-9999.0,SSE,12.7,-,N/A,,Clear,160,2013-01-01 13:30:00
3:00 PM,37.4,30.2,75,29.77,-9999.0,SSE,11.5,-,N/A,,Clear,150,2013-01-01 14:00:00
3:30 PM,37.4,30.2,75,29.77,-9999.0,SSE,12.7,-,N/A,,Clear,160,2013-01-01 14:30:00
4:00 PM,37.4,30.2,75,29.77,-9999.0,SSE,10.4,-,N/A,,Clear,150,2013-01-01 15:00:00
4:30 PM,37.4,30.2,75,29.77,6.2,SSE,11.5,-,N/A,,Scattered Clouds,150,2013-01-01 15:30:00
5:00 PM,37.4,30.2,75,29.77,6.2,SSE,10.4,-,N/A,,Mostly Cloudy,160,2013-01-01 16:00:00
5:30 PM,37.4,30.2,75,29.77,6.2,SSE,10.4,-,N/A,,Partly Cloudy,160,2013-01-01 16:30:00
6:00 PM,35.6,30.2,81,29.80,-9999.0,SSE,10.4,-,N/A,,Clear,160,2013-01-01 17:00:00
6:30 PM,35.6,30.2,81,29.80,6.2,SSE,10.4,-,N/A,,Partly Cloudy,160,2013-01-01 17:30:00
7:00 PM,38,30,65,29.85,9,SSE,6.7,,,Rain,Light Rain,160,2013-01-01 18:00:00
7:00 PM,37.4,30.2,75,29.80,6.2,SSE,9.2,-,N/A,,Scattered Clouds,160,2013-01-01 18:00:00
7:30 PM,37.4,30.2,75,29.80,6.2,SSE,8.1,-,N/A,,Scattered Clouds,160,2013-01-01 18:30:00
8:00 PM,37.4,30.2,75,29.80,6.2,South,9.2,-,N/A,,Mostly Cloudy,170,2013-01-01 19:00:00
8:30 PM,37.4,32.0,81,29.80,6.2,South,10.4,-,N/A,,Scattered Clouds,180,2013-01-01 19:30:00
9:00 PM,37.4,32.0,81,29.80,6.2,South,8.1,-,N/A,,Mostly Cloudy,180,2013-01-01 20:00:00
9:30 PM,41.0,35.6,81,29.83,6.2,SW,15.0,-,N/A,,Scattered Clouds,230,2013-01-01 20:30:00
10:00 PM,41.0,35.6,81,29.83,6.2,WSW,11.5,-,N/A,,Mostly Cloudy,240,2013-01-01 21:00:00
10:30 PM,41.0,35.6,81,29.83,6.2,SW,15.0,-,N/A,,Scattered Clouds,230,2013-01-01 21:30:00
11:00 PM,41.0,35.6,81,29.83,6.2,WSW,11.5,-,N/A,,Scattered Clouds,240,2013-01-01 22:00:00
11:30 PM,41.0,35.6,81,29.86,6.2,WSW,11.5,-,N/A,,Mostly Cloudy,240,2013-01-01 22:30:00